Location: Maccacari
(45.1333°N, 11.1333°E)
Time: 21:55:40
(UTC+00:00)

A-11 Canister half - All Passes

Search period start: 21 January 2021 00:00
Search period end: 31 January 2021 00:00
Orbit: 1524 x 1684 km, 47.3° (Epoch: 20 January)

Date Brightness Start Highest point End Pass type
(mag) Time Alt. Az. Time Alt. Az. Time Alt. Az.
21 Jan - 13:30:41 10° SSW 13:39:02 39° SE 13:47:35 10° ENE daylight
21 Jan - 15:33:52 10° WSW 15:43:18 84° SSE 15:53:04 10° ENE daylight
21 Jan - 17:39:06 10° W 17:48:41 79° N 17:58:38 10° E visible
21 Jan - 19:44:19 10° WNW 19:53:59 74° SSW 20:03:57 10° SE visible
21 Jan - 21:49:52 10° WNW 21:58:05 31° SW 22:06:28 10° S visible
22 Jan - 13:09:12 10° SSW 13:17:27 37° SE 13:25:52 10° ENE daylight
22 Jan - 15:12:15 10° WSW 15:21:38 82° SSE 15:31:21 10° ENE daylight
22 Jan - 17:17:26 10° W 17:27:00 79° N 17:36:55 10° E visible
22 Jan - 19:22:40 10° WNW 19:32:19 76° SSW 19:42:17 10° ESE visible
22 Jan - 21:28:09 10° WNW 21:36:29 33° SW 21:45:00 10° SSE visible
23 Jan - 12:47:46 10° SSW 12:55:52 35° SE 13:04:07 10° ENE daylight
23 Jan - 14:50:37 10° WSW 14:59:59 80° SSE 15:09:40 10° ENE daylight
23 Jan - 16:55:47 10° W 17:05:19 79° N 17:15:12 10° E visible
23 Jan - 19:01:01 10° WNW 19:10:39 78° SSW 19:20:37 10° ESE visible
23 Jan - 21:06:26 10° WNW 21:14:52 34° SW 21:23:31 10° SSE visible
24 Jan - 12:26:19 10° SSW 12:34:17 33° SE 12:42:23 10° ENE daylight
24 Jan - 14:28:59 10° WSW 14:38:20 79° SSE 14:47:58 10° ENE daylight
24 Jan - 16:34:06 10° W 16:43:37 79° N 16:53:29 10° E visible
24 Jan - 18:39:21 10° WNW 18:48:59 80° SSW 18:58:56 10° ESE visible
24 Jan - 20:44:43 10° WNW 20:53:15 36° SW 21:02:01 10° SSE visible
25 Jan - 12:04:53 10° SSW 12:12:42 32° SE 12:20:38 10° ENE daylight
25 Jan - 14:07:23 10° WSW 14:16:41 77° SSE 14:26:16 10° ENE daylight
25 Jan - 16:12:27 10° W 16:21:56 79° N 16:31:45 10° E daylight
25 Jan - 18:17:42 10° WNW 18:27:19 82° SSW 18:37:15 10° ESE visible
25 Jan - 20:23:01 10° WNW 20:31:39 38° SW 20:40:30 10° SSE visible
26 Jan - 11:43:28 10° S 11:51:08 30° SE 11:58:54 10° ENE daylight
26 Jan - 13:45:46 10° SW 13:55:03 75° SSE 14:04:35 10° ENE daylight
26 Jan - 15:50:47 10° W 16:00:15 79° N 16:10:03 10° E daylight
26 Jan - 17:56:04 10° WNW 18:05:39 84° SSW 18:15:34 10° ESE visible
26 Jan - 20:01:19 10° WNW 20:10:02 39° SW 20:18:59 10° SSE visible
27 Jan - 11:22:04 10° S 11:29:34 29° SE 11:37:08 10° ENE daylight
27 Jan - 13:24:10 10° SW 13:33:25 72° SSE 13:42:55 10° ENE daylight
27 Jan - 15:29:07 10° W 15:38:34 79° N 15:48:20 10° E daylight
27 Jan - 17:34:24 10° WNW 17:43:58 85° SSW 17:53:52 10° ESE visible
27 Jan - 19:39:38 10° WNW 19:48:25 41° SW 19:57:28 10° SSE visible
27 Jan - 21:51:03 10° WSW 21:51:27 10° WSW 21:51:51 10° WSW visible
28 Jan - 11:00:41 10° S 11:07:59 27° SE 11:15:22 10° ENE daylight
28 Jan - 13:02:34 10° SW 13:11:47 70° SSE 13:21:13 10° ENE daylight
28 Jan - 15:07:28 10° W 15:16:53 79° N 15:26:37 10° E daylight
28 Jan - 17:12:45 10° WNW 17:22:18 87° SSW 17:32:11 10° ESE visible
28 Jan - 19:17:57 10° WNW 19:26:48 43° SW 19:35:55 10° SSE visible
28 Jan - 21:27:31 10° WSW 21:29:54 11° WSW 21:32:17 10° SW visible
29 Jan - 10:39:19 10° S 10:46:26 25° SE 10:53:36 10° E daylight
29 Jan - 12:40:58 10° SW 12:50:09 68° SSE 12:59:32 10° ENE daylight
29 Jan - 14:45:48 10° W 14:55:12 80° N 15:04:54 10° E daylight
29 Jan - 16:51:07 10° WNW 17:00:39 88° SSW 17:10:30 10° ESE visible
29 Jan - 18:56:16 10° WNW 19:05:11 45° SW 19:14:21 10° SSE visible
29 Jan - 21:05:03 10° WSW 21:08:20 12° WSW 21:11:39 10° SW visible
30 Jan - 10:17:58 10° S 10:24:52 24° SE 10:31:49 10° E daylight
30 Jan - 12:19:22 10° SW 12:28:31 66° SSE 12:37:52 10° ENE daylight
30 Jan - 14:24:08 10° W 14:33:31 80° N 14:43:12 10° E daylight
30 Jan - 16:29:27 10° WNW 16:38:57 90° SW 16:48:47 10° ESE visible
30 Jan - 18:34:36 10° WNW 18:43:33 46° SW 18:52:48 10° SSE visible
30 Jan - 20:42:49 10° W 20:46:46 13° WSW 20:50:47 10° SSW visible
